Regional Weather Roundup
Issued by NWS Huntsville, AL

Home | Current Version | Previous Version | Text Only | Print | Product List | Glossary On
Versions: 1 2 3 4 5 6 7 8 9 10 11 12 13 14 15 16 17 18 19 20 21 22 23 24 25 26 27 28 29 30 31 32 33 34 35 36 37 38 39 40 41 42 43 44 45 46 47 48 49 50
000
ASUS44 KHUN 280624
RWRHUN

WEATHER ROUNDUP FOR THE TENNESSEE VALLEY
NATIONAL WEATHER SERVICE HUNTSVILLE AL
100 AM CDT MON JUL 28 2014

ALZ001>004-280700-
NORTHWEST ALABAMA

CITY           SKY/WX    TMP DP  RH WIND       PRES   REMARKS
COURTLAND HCN    N/A     81 N/A N/A W8          N/A
RUSSELLVILLE     N/A     81 N/A N/A MISG        N/A
SHOALS AIRPORT PTCLDY    82  75  78 W8        29.95F
6HR MIN TEMP:  82; 6HR MAX TEMP:  87;

SHOALS TVA RES   N/A     81 N/A N/A MISG        N/A
$$

ALZ005>007-016-280700-
NORTH CENTRAL ALABAMA

CITY           SKY/WX    TMP DP  RH WIND       PRES   REMARKS
CULLMAN AG STN   N/A     79 N/A N/A W7          N/A
DECATUR AP     PTCLDY    82  76  81 W8        29.94S
6HR MIN TEMP:  82; 6HR MAX TEMP:  86;

HUNTSVILLE AP  MOCLDY    79  75  87 SW6       29.93F
6HR MIN TEMP:  79; 6HR MAX TEMP:  87;

HUN NWS/UAH      N/A     82  73  73 SW3         N/A
MERIDIANVILLE  MOCLDY    79  72  78 SW7       29.94S
VINEMONT AP      N/A     79  74  86 W5        29.99F
$$

ALZ008>010-280700-
NORTHEAST ALABAMA

CITY           SKY/WX    TMP DP  RH WIND       PRES   REMARKS
ALBERTVILLE    PTCLDY    79  77  94 W8        29.96F
CROSSVILLE       N/A     79 N/A N/A CALM        N/A
FORT PAYNE     MOCLDY    77  70  78 CALM      29.94F
SCOTTSBORO AP  MOCLDY    82  73  74 SW6       29.93S
SCOTTSBORO HCN   N/A     82 N/A N/A MISG        N/A
VALLEY HEAD      N/A     75 N/A N/A MISG        N/A
$$

TNZ076-096-097-280700-
SOUTHEASTERN MIDDLE TENNESSEE

CITY           SKY/WX    TMP DP  RH WIND       PRES   REMARKS
FAYETTEVILLE   MOCLDY    79  75  89 W7        29.94S
TULLAHOMA      MOCLDY    73  70  88 NW8       29.95F
WINCHESTER     MOCLDY    73  70  88 W12       29.95R
$$

...SURROUNDING SITES...

CITY           SKY/WX    TMP DP  RH WIND       PRES   REMARKS
ATLANTA        CLOUDY    80  72  76 W8        29.95F
ANNISTON       MOCLDY    78  72  81 SW7       29.96F
BIRMINGHAM     PTCLDY    82  73  74 W7        29.99F
CHATTANOOGA    CLOUDY    78  66  66 N15G23    29.94R
CORINTH        FAIR      81  75  83 W5        29.94F
DALTON         CLOUDY    81  73  78 CALM      29.92S
GADSDEN        PTCLDY    81  72  74 W12       29.94F
GOLDEN TRNGL   PTCLDY    81  72  74 W5        29.97F
HALEYVILLE     FAIR      79  76  90 W6        30.00F
JACKSON TN     CLEAR     80  73  79 NW8       29.95R
LEWISBURG      FAIR      74  70  87 CALM      29.92F
MEMPHIS        PTCLDY    83  76  79 NW7       29.96S HX  91
MURFREESBORO   MOCLDY    76  73  90 NW5       29.91R
NASHVILLE      PTCLDY    76  72  87 NW6       29.93R
OXFORD MS      FAIR      81  75  83 W3        29.98S
ROME           CLOUDY    83  73  72 W10       29.91F
SAVANNAH       PTCLDY    81  81 100 W3        29.94F HX  91
TUPELO         MOCLDY    82  76  81 W5        29.95F
TUSCALOOSA     CLEAR     80  74  81 CALM      29.97S
$$

...GULF COAST WEATHER...

CITY           SKY/WX    TMP DP  RH WIND       PRES   REMARKS
GULFPORT       CLEAR     85  76  74 W6        30.03F HX  94
PASCAGOULA     CLEAR     81  79  94 SW3       30.03F HX  90
MOBILE         CLEAR     80  79  96 SW5       30.04F
GULF SHORES      N/A     82  78  88 W10       30.01F HX  91
PENSACOLA      CLEAR     82  77  84 SW7       30.01F HX  90
DESTIN         CLEAR     84  80  88 VRB7      30.01F HX  97
PANAMA CITY    CLEAR     83  78  84 W14       30.02F HX  92
APPALACHICOLA  CLEAR     79  75  87 W12       30.01F
$$



USA.gov is the U.S. government's official web portal to all federal, state and local government web resources and services.